Watonga, OK

6:51 AM CDT on August 19, 2017 (GMT -0500)
Watonga

Weather History for KJWG - January, 2013

Change the Weather History Date:

Tuesday, January 22, 2013

  Actual Average Record
Temperature  
Mean Temperature 40 °F -  
Max Temperature 58 °F 50 °F 81 °F (1967)
Min Temperature 23 °F 26 °F 2 °F (1966)
Degree Days  
Heating Degree Days 24    
Moisture  
Dew Point 27 °F    
Average Humidity 66    
Maximum Humidity 94    
Minimum Humidity 40    
Precipitation  
Precipitation 0.00 in - - ()
Sea Level Pressure  
Sea Level Pressure 30.19 in    
Wind  
Wind Speed 5 mph (South)    
Max Wind Speed 20 mph    
Max Gust Speed 25 mph    
Visibility 10 miles    
Events      
Averages and records for this station are not official NWS values.
T = Trace of Precipitation, MM = Missing Value Source: NWS Daily Summary

Daily Weather History Graph

Daily Weather History Graph

Search for Another Location

Airport or City:

Trip Planner

Search our weather history database for the weather conditions in past years. The results will help you decide how hot, cold, wet, or windy it might be!

Date:

Astronomy

Jan. 22, 2013 Rise Set
Actual Time 7:40 AM CST 5:50 PM CST
Civil Twilight 7:12 AM CST 6:18 PM CST
Nautical Twilight 6:41 AM CST 6:49 PM CST
Astronomical Twilight 6:11 AM CST 7:19 PM CST
Moon 2:16 PM CST (1/22) 4:01 AM CST (1/22)
Length of Visible Light 11h 05m
Length of Day
10h 10m
Waxing Gibbous, 83% of the Moon is Illuminated
Jan 22
Waxing Gibbous
Jan 26
Full
Feb 3
Last Quarter
Feb 10
New
Feb 17
First Quarter

Hourly Weather History & Observations

Time (CST) Temp. Windchill Dew Point Humidity Pressure Visibility Wind Dir Wind Speed Gust Speed Precip Events Conditions
12:15 AM 28.9 °F - 20.3 °F 70% 30.25 in 10.0 mi Calm Calm - N/A   Clear
12:35 AM 27.9 °F 24.0 °F 19.9 °F 72% 30.25 in 10.0 mi ESE 3.5 mph - N/A   Clear
12:55 AM 27.0 °F - 20.3 °F 76% 30.25 in 10.0 mi Calm Calm - N/A   Clear
1:15 AM 26.2 °F - 20.7 °F 79% 30.24 in 10.0 mi Calm Calm - N/A   Clear
1:35 AM 25.7 °F - 20.3 °F 80% 30.25 in 10.0 mi Calm Calm - N/A   Clear
1:55 AM 25.5 °F 21.3 °F 20.3 °F 81% 30.24 in 10.0 mi East 3.5 mph - N/A   Clear
2:15 AM 25.3 °F 19.7 °F 20.7 °F 82% 30.24 in 10.0 mi East 4.6 mph - N/A   Clear
2:35 AM 25.3 °F 21.1 °F 20.1 °F 81% 30.25 in 10.0 mi ENE 3.5 mph - N/A   Clear
2:55 AM 24.8 °F 20.5 °F 20.1 °F 82% 30.25 in 10.0 mi East 3.5 mph - N/A   Clear
3:15 AM 25.9 °F 21.7 °F 20.3 °F 79% 30.25 in 10.0 mi ESE 3.5 mph - N/A   Clear
3:35 AM 25.9 °F 21.7 °F 20.5 °F 80% 30.23 in 10.0 mi SSE 3.5 mph - N/A   Clear
3:55 AM 24.1 °F - 20.8 °F 87% 30.23 in 10.0 mi Calm Calm - N/A   Clear
4:15 AM 23.9 °F - 20.7 °F 87% 30.23 in 10.0 mi Calm Calm - N/A   Clear
4:35 AM 25.3 °F 18.5 °F 20.3 °F 81% 30.22 in 10.0 mi South 5.8 mph - N/A   Clear
5:15 AM 25.7 °F 21.5 °F 20.1 °F 79% 30.22 in 10.0 mi South 3.5 mph - N/A   Clear
5:35 AM 26.8 °F - 19.9 °F 75% 30.23 in 10.0 mi Calm Calm - N/A   Clear
5:55 AM 26.1 °F 21.9 °F 19.9 °F 78% 30.23 in 10.0 mi SSE 3.5 mph - N/A   Clear
6:15 AM 27.1 °F 21.8 °F 20.3 °F 75% 30.23 in 10.0 mi South 4.6 mph - N/A   Clear
6:35 AM 27.9 °F 22.6 °F 20.8 °F 75% 30.23 in 10.0 mi South 4.6 mph - N/A   Clear
6:55 AM 27.5 °F 22.2 °F 20.7 °F 75% 30.23 in 10.0 mi SSE 4.6 mph - N/A   Clear
7:15 AM 27.0 °F 19.5 °F 20.8 °F 78% 30.22 in 10.0 mi SSE 6.9 mph - N/A   Clear
7:35 AM 26.8 °F 20.2 °F 20.8 °F 78% 30.22 in 10.0 mi SSE 5.8 mph - N/A   Clear
8:15 AM 27.0 °F 19.5 °F 21.0 °F 78% 30.21 in 10.0 mi SSE 6.9 mph - N/A   Clear
8:35 AM 27.7 °F 20.4 °F 21.7 °F 78% 30.20 in 10.0 mi SSE 6.9 mph - N/A   Clear
8:55 AM 30.0 °F 24.1 °F 22.3 °F 73% 30.21 in 10.0 mi South 5.8 mph - N/A   Clear
9:15 AM 32.0 °F 26.4 °F 23.5 °F 71% 30.21 in 10.0 mi South 5.8 mph - N/A   Clear
9:35 AM 34.3 °F 27.7 °F 25.0 °F 69% 30.22 in 10.0 mi South 8.1 mph - N/A   Clear
9:55 AM 36.5 °F 31.0 °F 24.8 °F 63% 30.23 in 10.0 mi South 6.9 mph - N/A   Clear
10:15 AM 39.2 °F 31.6 °F 24.8 °F 56% 30.23 in 10.0 mi South 12.7 mph 16.1 mph N/A   Clear
10:35 AM 40.5 °F 32.5 °F 24.8 °F 54% 30.22 in 10.0 mi SSW 15.0 mph - N/A   Clear
11:15 AM 43.3 °F 35.8 °F 25.9 °F 50% 30.22 in 10.0 mi SSW 16.1 mph 21.9 mph N/A   Clear
11:35 AM 45.5 °F 38.1 °F 26.6 °F 48% 30.21 in 10.0 mi SSW 18.4 mph 24.2 mph N/A   Clear
11:55 AM 46.2 °F 40.1 °F 27.7 °F 48% 30.21 in 10.0 mi SSW 13.8 mph 24.2 mph N/A   Clear
12:15 PM 47.7 °F - 28.4 °F 47% 30.20 in 10.0 mi SSW 18.4 mph 24.2 mph N/A   Clear
12:35 PM 50.0 °F - 30.0 °F 46% 30.18 in 10.0 mi SW 19.6 mph 25.3 mph N/A   Clear
1:15 PM 51.8 °F - 30.9 °F 45% 30.17 in 10.0 mi SSW 11.5 mph - N/A   Clear
1:35 PM 53.2 °F - 31.8 °F 44% 30.16 in 10.0 mi SSW 12.7 mph - N/A   Clear
2:15 PM 55.2 °F - 32.4 °F 42% 30.13 in 10.0 mi SW 15.0 mph 21.9 mph N/A   Clear
2:35 PM 55.9 °F - 32.7 °F 41% 30.13 in 10.0 mi SSW 16.1 mph 21.9 mph N/A   Clear
2:55 PM 57.0 °F - 33.3 °F 41% 30.12 in 10.0 mi SW 16.1 mph 23.0 mph N/A   Clear
3:15 PM 57.4 °F - 33.4 °F 40% 30.12 in 10.0 mi SSW 16.1 mph 24.2 mph N/A   Clear
3:35 PM 57.7 °F - 33.8 °F 41% 30.11 in 10.0 mi SSW 16.1 mph 23.0 mph N/A   Clear
3:55 PM 58.1 °F - 34.2 °F 41% 30.12 in 10.0 mi SSW 13.8 mph 19.6 mph N/A   Clear
4:15 PM 58.3 °F - 34.7 °F 41% 30.12 in 10.0 mi SW 15.0 mph 20.7 mph N/A   Clear
4:35 PM 58.3 °F - 34.9 °F 41% 30.12 in 10.0 mi SSW 12.7 mph - N/A   Clear
4:55 PM 58.1 °F - 35.2 °F 42% 30.13 in 10.0 mi SSW 10.4 mph - N/A   Clear
5:15 PM 57.2 °F - 35.2 °F 44% 30.14 in 10.0 mi SW 8.1 mph - N/A   Clear
5:35 PM 55.4 °F - 35.6 °F 47% 30.14 in 10.0 mi SSW 3.5 mph - N/A   Clear
5:55 PM 53.6 °F - 35.4 °F 50% 30.14 in 10.0 mi Calm Calm - N/A   Clear
6:15 PM 53.1 °F - 35.2 °F 51% 30.15 in 10.0 mi SSE 3.5 mph - N/A   Clear
6:35 PM 51.8 °F - 35.6 °F 54% 30.16 in 10.0 mi SSE 4.6 mph - N/A   Clear
6:55 PM 51.1 °F - 35.8 °F 56% 30.15 in 10.0 mi SSE 4.6 mph - N/A   Clear
7:15 PM 45.9 °F 43.6 °F 34.5 °F 65% 30.16 in 10.0 mi SE 4.6 mph - N/A   Clear
7:35 PM 48.4 °F - 35.2 °F 60% 30.16 in 10.0 mi SSE 3.5 mph - N/A   Clear
7:55 PM 44.6 °F - 34.7 °F 68% 30.16 in 10.0 mi Calm Calm - N/A   Clear
8:15 PM 44.2 °F 42.7 °F 34.7 °F 69% 30.16 in 10.0 mi SSE 3.5 mph - N/A   Clear
8:35 PM 43.2 °F 40.5 °F 34.7 °F 72% 30.16 in 10.0 mi SSE 4.6 mph - N/A   Clear
8:55 PM 40.6 °F - 33.6 °F 76% 30.17 in 10.0 mi Calm Calm - N/A   Clear
9:15 PM 39.9 °F - 32.9 °F 76% 30.17 in 10.0 mi Calm Calm - N/A   Clear
9:35 PM 35.8 °F - 32.0 °F 86% 30.18 in 10.0 mi Calm Calm - N/A   Clear
10:15 PM 40.8 °F - 33.8 °F 76% 30.19 in 10.0 mi Calm Calm - N/A   Clear
10:35 PM 35.6 °F 32.8 °F 32.2 °F 87% 30.20 in 10.0 mi South 3.5 mph - N/A   Clear
11:15 PM 32.9 °F 26.7 °F 31.3 °F 94% 30.21 in 10.0 mi NW 6.9 mph - N/A   Clear
11:35 PM 33.8 °F 30.8 °F 31.5 °F 91% 30.21 in 10.0 mi NW 3.5 mph - N/A   Clear
11:55 PM 32.2 °F 27.7 °F 30.7 °F 94% 30.21 in 10.0 mi WNW 4.6 mph - N/A   Clear